This demonstration page uses our WeatherBlox Daily Observations layout. Learn more.

41.55636, -103.73856

Hourly Observations for May 19, 2017

Temp ( °F °C ) Dew Point ( °F °C ) Humidity (%) Winds ( mph kmh ) Pressure ( in mb ) Visibility ( mi km ) Precip ( " mm )
12:01 am 00:01 Cloudy 41 5 36 2.2 82 82 NNE 14 22 30.12 1020 10 16.0934 0 0
12:24 am 00:24 Cloudy 41 5 37 3 87 87 NNE 17 28 30.12 1020 10 16.0934 0 0
12:53 am 00:53 Cloudy with Light Rain 40 4.4 36 2.2 86 86 NNE 18 30 30.1 1019 10 16.0934 0.01 0.254
1:53 am 01:53 Cloudy 40 4.4 36 2.2 86 86 NNE 21 33 30.09 1019 10 16.0934 0 0.0254
2:53 am 02:53 Cloudy with Light Rain 40 4.4 36 2.2 86 86 NNE 21 33 30.09 1019 10 16.0934 0 0.0254
3:08 am 03:08 Cloudy 39 4 36 2 87 87 NNE 22 35 30.12 1020 10 16.0934 0 0
3:53 am 03:53 Cloudy 40 4.4 35 1.7 83 83 NNE 22 35 30.08 1019 10 16.0934 0 0.0254
4:36 am 04:36 Cloudy 40 4.4 36 2.2 86 86 NNE 20 31 30.12 1020 10 16.0934 0 0
4:53 am 04:53 Cloudy 40 4.4 36 2.2 86 86 NNE 16 26 30.11 1020 9 14.48406 0 0
5:31 am 05:31 Cloudy with Light Rain 39 3.9 36 2.2 89 89 NNE 17 28 30.12 1020 5 8.0467 0 0.0254
5:43 am 05:43 Cloudy with Light Rain 40 4.4 36 2.2 86 86 NNE 18 30 30.12 1020 8 12.87472 0 0.0254
5:53 am 05:53 Cloudy with Light Rain 40 4.4 36 2.2 86 86 NNE 18 30 30.11 1020 10 16.0934 0 0.0254
6:53 am 06:53 Cloudy with Light Rain 39 3.9 35 1.7 86 86 NNE 21 33 30.13 1020 10 16.0934 0.01 0.254
7:48 am 07:48 Cloudy 41 5 36 2 81 81 NNE 22 35 30.12 1020 10 16.0934 0 0
7:53 am 07:53 Cloudy 41 5 36 2.2 82 82 NNE 21 33 30.11 1020 10 16.0934 0 0.0254
8:53 am 08:53 Cloudy 41 5 37 2.8 86 86 NE 23 37 30.12 1020 10 16.0934 0 0
9:53 am 09:53 Cloudy with Light Rain 41 5 37 2.8 86 86 NE 20 31 30.14 1021 5 8.0467 0.02 0.508
10:24 am 10:24 Cloudy with Light Rain 41 5 37 2.8 86 86 NE 16 26 30.18 1022 6 9.65604 0.04 1.016
10:53 am 10:53 Cloudy with Rain 41 5 38 3.3 89 89 NE 12 19 30.15 1021 5 8.0467 0.08 2.032
11:02 am 11:02 Cloudy with Light Rain 41 5 37 3 87 87 NE 13 20 30.18 1022 6 9.65604 0 0
11:53 am 11:53 Cloudy with Rain 40 4.4 36 2.2 86 86 NNE 16 26 30.15 1021 6 9.65604 0.1 2.54
12:24 pm 12:24 Cloudy with Light Rain 39 4 37 3 93 93 NNE 15 24 30.18 1022 10 16.0934 0 0
12:36 pm 12:36 Cloudy with Light Rain 39 4 37 3 93 93 NNE 12 19 30.18 1022 9 14.48406 0 0
12:53 pm 12:53 Cloudy with Light Rain 39 3.9 37 2.8 93 93 N 13 20 30.16 1021 7 11.26538 0.04 1.016
1:02 pm 13:02 Cloudy with Light Rain 39 4 37 3 93 93 N 13 20 30.18 1022 7 11.26538 0 0
1:53 pm 13:53 Cloudy with Light Rain 41 5 38 3.3 89 89 NNE 13 20 30.15 1021 6 9.65604 0.04 1.016
2:46 pm 14:46 Cloudy with Light Rain 39 3.9 36 2.2 89 89 N 13 20 30.18 1022 8 12.87472 0.04 1.016
2:53 pm 14:53 Cloudy with Light Rain 39 3.9 35 1.7 86 86 NNE 15 24 30.14 1021 7 11.26538 0.05 1.27
3:53 pm 15:53 Cloudy with Light Rain 42 5.6 38 3.3 85 85 N 10 17 30.13 1020 10 16.0934 0.04 1.016
4:03 pm 16:03 Cloudy with Light Rain 42 5.6 38 3.3 85 85 N 12 19 30.15 1021 9 14.48406 0 0.0254
4:44 pm 16:44 Cloudy with Light Rain 43 6 37 3 81 81 NNE 12 19 30.15 1021 9 14.48406 0 0
4:53 pm 16:53 Cloudy with Light Rain 43 6.1 39 3.9 86 86 NNE 9 15 30.12 1020 10 16.0934 0.01 0.254
5:53 pm 17:53 Cloudy with Light Rain 43 6.1 38 3.3 82 82 N 10 17 30.14 1021 6 9.65604 0.02 0.508
6:53 pm 18:53 Cloudy with Light Rain 42 5.6 38 3.3 85 85 N 12 19 30.15 1021 6 9.65604 0.05 1.27
7:38 pm 19:38 Cloudy with Light Rain 41 5 37 3 87 87 N 8 13 30.18 1022 5 8.0467 0 0
7:53 pm 19:53 Cloudy with Light Rain 41 5 37 2.8 86 86 NNE 10 17 30.16 1021 7 11.26538 0.05 1.27
8:09 pm 20:09 Cloudy with Light Rain 41 5 37 2.8 86 86 NNE 8 13 30.18 1022 8 12.87472 0.01 0.254
8:45 pm 20:45 Cloudy with Light Rain 39 3.9 35 1.7 86 86 NE 10 17 30.18 1022 10 16.0934 0.03 0.762
8:53 pm 20:53 Cloudy with Light Rain 39 3.9 35 1.7 86 86 NE 10 17 30.18 1022 10 16.0934 0.03 0.762
9:53 pm 21:53 Cloudy with Light Rain 37 2.8 36 2.2 96 96 N 7 11 30.19 1022 9 14.48406 0.02 0.508
10:33 pm 22:33 Cloudy with Light Rain 37 2.8 36 2.2 96 96 N 8 13 30.21 1023 8 12.87472 0.02 0.508
10:53 pm 22:53 Cloudy with Light Rain 37 2.8 35 1.7 93 93 NW 7 11 30.19 1022 8 12.87472 0.04 1.016
11:09 pm 23:09 Cloudy with Rain 36 2.2 34 1.1 93 93 NNW 9 15 30.21 1023 6 9.65604 0.03 0.762
11:26 pm 23:26 Cloudy with Rain 36 2 34 1 93 93 NNW 8 13 30.21 1023 6 9.65604 0 0
11:53 pm 23:53 Cloudy with Light Rain 36 2.2 33 0.6 89 89 NW 6 9 30.17 1022 6 9.65604 0.08 2.032

Powered by AerisWeather